Location: All Nations United Methodist Church
(33.0215°N, 96.7483°W)
Time: 15:35:33
(UTC+00:00)

Cosmos 1606 Rocket - Pass Details

Date: 24 January 2021
Orbit: 604 x 631 km, 82.5° (Epoch: 07 March)

Event Time Altitude Azimuth Distance (km) Brightness Sun altitude
Rises 12:39:06 0° 188° (S) 2,842 7.1 -10.3°
Reaches altitude 10° 12:41:18 10° 190° (S) 1,941 6.2 -9.8°
Maximum altitude 12:45:35 77° 276° (W) 624 3.4 -9.0°
Drops below altitude 10° 12:49:54 10° 3° (N) 1,956 6.0 -8.1°
Sets 12:52:08 0° 5° (N) 2,865 6.8 -7.7°
